This is the latest recevied weather packets stored in our database for station/object N5WAY-13. If no packets are shown the sender has not sent any weather packets the latest 10 day(s).
| Time | Temp. | Humidity | Pressure | Rain* | Wind** | Luminosity | Snow |
|---|---|---|---|---|---|---|---|
| 1777902916 | 13.89° C | 64% | 1015.9 hPa | 0 mm | - | 143 W/m² | - |
| 1777901716 | 13.33° C | 66% | 1016 hPa | 0 mm | - | 117 W/m² | - |
| 1777901137 | 13.33° C | 66% | 1015.8 hPa | 0 mm | - | 79 W/m² | - |
| 1777899917 | 13.33° C | 66% | 1015.8 hPa | 0 mm | - | 44 W/m² | - |
| 1777898717 | 13.33° C | 67% | 1015.2 hPa | 0 mm | - | 15 W/m² | - |
| 1777898117 | 12.78° C | 68% | 1015 hPa | 0 mm | - | 11 W/m² | - |
| 1777894518 | 12.22° C | 66% | 1014.8 hPa | 0 mm | - | 0 W/m² | - |
| 1777892756 | 12.22° C | 68% | 1014.5 hPa | 0 mm | - | 0 W/m² | - |
| 1777888517 | 13.89° C | 64% | 1014.1 hPa | 0 mm | - | 0 W/m² | - |
| 1777887917 | 13.89° C | 63% | 1014.1 hPa | 0 mm | - | 0 W/m² | - |
| 1777886718 | 13.89° C | 63% | 1014.2 hPa | 0 mm | - | 0 W/m² | - |
| 1777885518 | 13.89° C | 62% | 1014.3 hPa | 0 mm | - | 0 W/m² | - |
| 1777880116 | 15° C | 58% | 1015.4 hPa | 0 mm | - | 0 W/m² | - |
| 1777878317 | 15.56° C | 55% | 1015.6 hPa | 0 mm | - | 0 W/m² | - |
| 1777876517 | 15.56° C | 52% | 1015.5 hPa | 0 mm | - | 0 W/m² | - |
| 1777872338 | 16.11° C | 52% | 1015.4 hPa | 0 mm | - | 0 W/m² | - |
| 1777859118 | 21.11° C | 30% | 1014.2 hPa | 0 mm | - | 11 W/m² | - |
| 1777857318 | 21.11° C | 28% | 1014.1 hPa | 0 mm | - | 28 W/m² | - |
| 1777850716 | 23.33° C | 22% | 1014.5 hPa | 0 mm | - | 487 W/m² | - |
| 1777842916 | 22.22° C | 26% | 1017 hPa | 0 mm | - | 935 W/m² | - |
| 1777836317 | 19.44° C | 33% | 1019.3 hPa | 0 mm | - | 1126 W/m² | - |
| 1777835117 | 18.89° C | 37% | 1019.6 hPa | 0 mm | - | 1135 W/m² | - |
| 1777833918 | 17.78° C | 37% | 1020.1 hPa | 0 mm | - | 673 W/m² | - |
| 1777830915 | 17.78° C | 40% | 1021 hPa | 0 mm | - | 1065 W/m² | - |
| 1777827316 | 16.67° C | 45% | 1021.8 hPa | 0 mm | - | 745 W/m² | - |
* Rain latest hour (hover to see other rain measurements)
** Current wind speed in m/s (hover to see current wind gust speed)